Skip Page Navigation
NASA JPL Caltech
NASA Logo - Jet Propulsion Laboratory + View the NASA Portal
+ Near-Earth Object (NEO) Program
Search JPL
JPL Home Earth Solar System Stars & Galaxies Technology
JPL Solar System Dynamics
BODIES ORBITS EPHEMERIDES TOOLS PHYSICAL DATA DISCOVERY FAQ SITE MAP
JPL Small-Body Database Browser
Search: [ help ]  
43955 Fixlmuller (1997 CE6)
Classification: Main-belt Asteroid          SPK-ID: 2043955
Ephemeris | Orbit Diagram | Orbital Elements | Physical Parameters | Discovery Circumstances ]

[ show orbit diagram ]
Orbital Elements at Epoch 2456400.5 (2013-Apr-18.0) TDB
Reference: MPO229321 (heliocentric ecliptic J2000)
 Element Value Uncertainty (1-sigma)   Units 
e 0.0398643 n/a  
a 2.3663844 n/a AU
q 2.2720501 n/a AU
i 0.27995 n/a deg
node 198.48275 n/a deg
peri 153.94765 n/a deg
M 303.37754 n/a deg
tp 2456609.6281931
(2013-Nov-13.12819310)
n/a JED
period 1329.6163662
3.64
n/a
n/a
d
yr
n 0.27075479 n/a deg/d
Q 2.4607187 n/a AU
  Orbit Determination Parameters
   # obs. used (total)      275  
   first obs. used      1976-??-??  
   last obs. used      2012-04-14  
   # oppositions      11  
   planetary ephem.      DE403  
   condition code      0  
   fit RMS      0.47  
   data source      MPC:mpn  
   producer      MPCLINUX  

Additional Information
 T_jup = 3.547 

Ephemeris | Orbit Diagram | Orbital Elements | Physical Parameters | Discovery Circumstances ]

Physical Parameter Table
Parameter Symbol Value Units Sigma Reference Notes
absolute magnitude H 16.4 mag n/a MPO229321  

43955 Fixlmüller           Discovered 1997 Feb. 6 by E. Meyer and E. Obermair at the Davidschlag Observatory, Linz.
Placidus Fixlmüller (1721-1791), director of the astronomical observatory of the abbey in Kremsmünster, Upper Austria, worked on the orbit of Uranus and calculated a precise value for the solar parallax from observations collected worldwide during the transit of Venus in 1769.
NOTE: some special characters may not display properly (any characters within {} are an attempt to place the proper accent above a character)
Reference: 20050125/MPCPages.arcLast Updated: 2005-06-01

Alternate Designations
 1997 CE6 = 1999 VP58 
Ephemeris | Orbit Diagram | Orbital Elements | Physical Parameters | Discovery Circumstances ]
ABOUT SSD CREDITS/AWARDS PRIVACY/COPYRIGHT GLOSSARY LINKS
FirstGov 2013-May-24 22:44 UT
(server date/time)  
NASA Home Page
Site Manager:   Donald K. Yeomans
Webmaster  Alan B. Chamberlin